Meteo orario Stepanakert

Oggi, 1 Ottobre, Giovedi

Tempo Temperatura Precipitazioni Vento Pressione Umidità
00:00 +15°C° 0 mm 1 m/s 693 mm Hg 84%
01:00 +15°C° 0 mm 1 m/s 693 mm Hg 85%
02:00 +14°C° 0 mm 1 m/s 693 mm Hg 86%
03:00 +14°C° 0 mm 1 m/s 693 mm Hg 87%
04:00 +14°C° 0 mm 1 m/s 693 mm Hg 89%
05:00 +14°C° 0 mm 1 m/s 693 mm Hg 90%
06:00 +14°C° 0 mm 1 m/s 693 mm Hg 91%
07:00 +14°C° 0 mm 1 m/s 693 mm Hg 89%
08:00 +15°C° 0 mm 1 m/s 693 mm Hg 87%
09:00 +15°C° 0 mm 1 m/s 694 mm Hg 84%
10:00 +16°C° 0 mm 2 m/s 694 mm Hg 81%
11:00 +16°C° 0 mm 2 m/s 694 mm Hg 78%
12:00 +17°C° 0 mm 2 m/s 694 mm Hg 74%
13:00 +17°C° 0 mm 2 m/s 693 mm Hg 72%
14:00 +18°C° 0 mm 2 m/s 693 mm Hg 69%
15:00 +18°C° 0 mm 2 m/s 693 mm Hg 66%
16:00 +18°C° 0 mm 2 m/s 693 mm Hg 67%
17:00 +18°C° 0 mm 1 m/s 693 mm Hg 67%
18:00 +18°C° 0 mm 1 m/s 693 mm Hg 68%
19:00 +16°C° 0 mm 1 m/s 693 mm Hg 70%
20:00 +15°C° 0 mm 1 m/s 693 mm Hg 72%
21:00 +13°C° 0 mm 0 m/s 693 mm Hg 74%
22:00 +13°C° 0 mm 0 m/s 693 mm Hg 75%
23:00 +13°C° 0 mm 0 m/s 693 mm Hg 77%

Domani, 2 Ottobre, Venerdi

Tempo Temperatura Precipitazioni Vento Pressione Umidità
00:00 +12°C° 0 mm 0 m/s 693 mm Hg 78%
01:00 +12°C° 0 mm 0 m/s 693 mm Hg 79%
02:00 +12°C° 0 mm 0 m/s 693 mm Hg 80%
03:00 +12°C° 0 mm 0 m/s 693 mm Hg 81%
04:00 +12°C° 0 mm 0 m/s 693 mm Hg 82%
05:00 +11°C° 0 mm 0 m/s 693 mm Hg 82%
06:00 +11°C° 0 mm 0 m/s 693 mm Hg 82%
07:00 +14°C° 0 mm 1 m/s 693 mm Hg 76%
08:00 +16°C° 0 mm 1 m/s 694 mm Hg 69%
09:00 +19°C° 0 mm 1 m/s 694 mm Hg 62%
10:00 +19°C° 0 mm 2 m/s 694 mm Hg 60%
11:00 +20°C° 0 mm 2 m/s 694 mm Hg 57%
12:00 +21°C° 0 mm 3 m/s 694 mm Hg 54%
13:00 +21°C° 0 mm 3 m/s 693 mm Hg 55%
14:00 +21°C° 0 mm 2 m/s 693 mm Hg 56%
15:00 +21°C° 0 mm 2 m/s 692 mm Hg 57%
16:00 +20°C° 0.2 mm 2 m/s 693 mm Hg 63%
17:00 +19°C° 0.2 mm 2 m/s 693 mm Hg 68%
18:00 +18°C° 0.2 mm 1 m/s 693 mm Hg 74%
19:00 +18°C° 0.1 mm 1 m/s 693 mm Hg 76%
20:00 +18°C° 0.1 mm 1 m/s 694 mm Hg 78%
21:00 +16°C° 0.1 mm 1 m/s 694 mm Hg 80%
22:00 +16°C° 0.1 mm 1 m/s 694 mm Hg 83%
23:00 +16°C° 0.1 mm 1 m/s 694 mm Hg 86%

Dopodomani, 3 Ottobre, Sabato

Tempo Temperatura Precipitazioni Vento Pressione Umidità
00:00 +15°C° 0.1 mm 1 m/s 694 mm Hg 88%
01:00 +15°C° 0 mm 1 m/s 694 mm Hg 88%
02:00 +15°C° 0 mm 1 m/s 694 mm Hg 87%
03:00 +14°C° 0 mm 1 m/s 694 mm Hg 87%
04:00 +13°C° 0 mm 0 m/s 694 mm Hg 88%
05:00 +13°C° 0 mm 0 m/s 694 mm Hg 88%
06:00 +13°C° 0 mm 0 m/s 694 mm Hg 89%
07:00 +15°C° 0 mm 1 m/s 694 mm Hg 83%
08:00 +18°C° 0 mm 1 m/s 695 mm Hg 78%
09:00 +19°C° 0 mm 1 m/s 695 mm Hg 72%
10:00 +19°C° 0 mm 2 m/s 695 mm Hg 71%
11:00 +19°C° 0 mm 2 m/s 695 mm Hg 70%
12:00 +20°C° 0 mm 2 m/s 695 mm Hg 69%
13:00 +20°C° 0 mm 2 m/s 695 mm Hg 69%
14:00 +19°C° 0 mm 2 m/s 694 mm Hg 70%
15:00 +19°C° 0 mm 2 m/s 694 mm Hg 70%
16:00 +20°C° 0 mm 1 m/s 694 mm Hg 71%
17:00 +20°C° 0 mm 1 m/s 695 mm Hg 72%
18:00 +19°C° 0 mm 1 m/s 695 mm Hg 73%
19:00 +19°C° 0 mm 1 m/s 695 mm Hg 73%
20:00 +18°C° 0 mm 1 m/s 695 mm Hg 73%
21:00 +18°C° 0 mm 1 m/s 696 mm Hg 72%
22:00 +16°C° 0 mm 1 m/s 696 mm Hg 74%
23:00 +16°C° 0 mm 1 m/s 696 mm Hg 76%

4 Ottobre, Domenica

Tempo Temperatura Precipitazioni Vento Pressione Umidità
00:00 +14°C° 0 mm 0 m/s 696 mm Hg 77%
01:00 +14°C° 0 mm 0 m/s 696 mm Hg 79%
02:00 +14°C° 0 mm 0 m/s 696 mm Hg 81%
03:00 +13°C° 0 mm 0 m/s 695 mm Hg 82%
04:00 +13°C° 0 mm 0 m/s 695 mm Hg 83%
05:00 +13°C° 0 mm 0 m/s 696 mm Hg 84%
06:00 +13°C° 0 mm 0 m/s 696 mm Hg 85%
07:00 +15°C° 0 mm 1 m/s 696 mm Hg 79%
08:00 +16°C° 0 mm 1 m/s 696 mm Hg 73%
09:00 +17°C° 0 mm 2 m/s 697 mm Hg 67%
10:00 +18°C° 0 mm 2 m/s 696 mm Hg 63%
11:00 +19°C° 0 mm 2 m/s 696 mm Hg 58%
12:00 +20°C° 0 mm 2 m/s 696 mm Hg 53%
13:00 +20°C° 0 mm 2 m/s 696 mm Hg 52%
14:00 +20°C° 0 mm 2 m/s 695 mm Hg 51%
15:00 +20°C° 0 mm 2 m/s 695 mm Hg 50%
16:00 +19°C° 0 mm 2 m/s 695 mm Hg 52%
17:00 +19°C° 0 mm 1 m/s 695 mm Hg 54%
18:00 +18°C° 0 mm 1 m/s 695 mm Hg 56%
19:00 +18°C° 0 mm 1 m/s 695 mm Hg 56%
20:00 +16°C° 0 mm 1 m/s 696 mm Hg 56%
21:00 +16°C° 0 mm 1 m/s 696 mm Hg 57%
22:00 +16°C° 0 mm 1 m/s 696 mm Hg 59%
23:00 +14°C° 0 mm 0 m/s 696 mm Hg 62%

5 Ottobre, Lunedi

Tempo Temperatura Precipitazioni Vento Pressione Umidità
00:00 +14°C° 0 mm 0 m/s 695 mm Hg 64%
01:00 +13°C° 0 mm 0 m/s 695 mm Hg 67%
02:00 +13°C° 0 mm 0 m/s 695 mm Hg 69%
03:00 +12°C° 0 mm 0 m/s 695 mm Hg 71%
04:00 +12°C° 0 mm 0 m/s 695 mm Hg 72%
05:00 +12°C° 0 mm 0 m/s 695 mm Hg 73%
06:00 +12°C° 0 mm 0 m/s 695 mm Hg 74%
07:00 +14°C° 0 mm 1 m/s 695 mm Hg 69%
08:00 +15°C° 0 mm 1 m/s 696 mm Hg 64%
09:00 +16°C° 0 mm 1 m/s 696 mm Hg 59%
10:00 +16°C° 0 mm 1 m/s 696 mm Hg 59%
11:00 +16°C° 0 mm 1 m/s 696 mm Hg 60%
12:00 +16°C° 0 mm 2 m/s 696 mm Hg 60%
13:00 +16°C° 0 mm 2 m/s 696 mm Hg 60%
14:00 +16°C° 0 mm 2 m/s 696 mm Hg 60%
15:00 +16°C° 0 mm 2 m/s 696 mm Hg 60%
16:00 +16°C° 0 mm 2 m/s 696 mm Hg 60%
17:00 +15°C° 0 mm 1 m/s 696 mm Hg 61%
18:00 +14°C° 0 mm 1 m/s 696 mm Hg 62%
19:00 +14°C° 0 mm 1 m/s 696 mm Hg 64%
20:00 +14°C° 0 mm 1 m/s 696 mm Hg 66%
21:00 +14°C° 0 mm 1 m/s 697 mm Hg 68%
22:00 +14°C° 0 mm 1 m/s 696 mm Hg 70%
23:00 +13°C° 0 mm 1 m/s 696 mm Hg 72%

6 Ottobre, Martedi

Tempo Temperatura Precipitazioni Vento Pressione Umidità
00:00 +13°C° 0 mm 1 m/s 696 mm Hg 73%
01:00 +13°C° 0.2 mm 1 m/s 696 mm Hg 72%
02:00 +13°C° 0.2 mm 1 m/s 696 mm Hg 72%
03:00 +12°C° 0.2 mm 1 m/s 695 mm Hg 71%
04:00 +12°C° 0.2 mm 1 m/s 695 mm Hg 71%
05:00 +12°C° 0.2 mm 1 m/s 695 mm Hg 71%
06:00 +12°C° 0.2 mm 1 m/s 696 mm Hg 71%
07:00 +12°C° 0 mm 1 m/s 696 mm Hg 71%
08:00 +12°C° 0 mm 1 m/s 696 mm Hg 72%
09:00 +12°C° 0 mm 1 m/s 696 mm Hg 72%
10:00 +12°C° 0.2 mm 1 m/s 696 mm Hg 76%
11:00 +12°C° 0.2 mm 1 m/s 696 mm Hg 80%
12:00 +12°C° 0.2 mm 1 m/s 696 mm Hg 84%
13:00 +11°C° 0.1 mm 1 m/s 696 mm Hg 85%
14:00 +11°C° 0.1 mm 1 m/s 695 mm Hg 85%
15:00 +11°C° 0.1 mm 1 m/s 695 mm Hg 86%
16:00 +11°C° 0.1 mm 1 m/s 695 mm Hg 87%
17:00 +11°C° 0.1 mm 1 m/s 695 mm Hg 88%
18:00 +11°C° 0.1 mm 1 m/s 695 mm Hg 89%
19:00 +11°C° 0.1 mm 1 m/s 695 mm Hg 87%
20:00 +11°C° 0.1 mm 1 m/s 696 mm Hg 85%
21:00 +11°C° 0.1 mm 1 m/s 696 mm Hg 84%
22:00 +11°C° 0 mm 1 m/s 696 mm Hg 83%
23:00 +10°C° 0 mm 0 m/s 695 mm Hg 83%
Mostrare altro